{"data":{"norad_id":47814,"intl_designator":"2021-018AD","name":"STARLINK-2395","alt_names":[],"object_type":"PAYLOAD","status":"ACTIVE","operator":null,"country":"US","launch_date":"2021-03-11","launch_site_code":"AFETR","launch_vehicle":null,"mission":null,"orbit_class":"UNKNOWN","rcs_meters":null,"size_class":null,"mass_kg":null,"dimensions":null,"purposes":["comms"],"wikipedia_slug":null,"has_3d_model":false,"image_url":null,"decayed_at":null,"tle_current":{"epoch":"2026-05-24T18:28:59.423808Z","epoch_age_seconds":98219,"freshness":"FRESH","line1":"1 47814U 21018AD  26144.77013222  .00004697  00000+0  16294-3 0  9997","line2":"2 47814  53.1578 248.9691 0001100  81.7869 278.3257 15.31719227288443","mean_motion":15.31719227,"eccentricity":0.00011,"inclination_deg":53.1578,"raan_deg":248.9691,"arg_perigee_deg":81.7869,"mean_anomaly_deg":278.3257,"bstar":0.00016294,"rev_number":28844,"period_min":94.012007854753,"perigee_km":469.92931097375,"apogee_km":471.4360513036,"semimajor_km":6848.8196811387,"source":"CELESTRAK","updated_at":"2026-05-25T13:38:16.602234Z"}}}